Showing default

IRIDIUM 113, 42803

Orbit data source: Space-Track

IRIDIUM 113, 42803 is a payload satellite owned by Iridium (US) in LEO that was launched on Sun, 25 Jun 2017 UTC via an FALCON 9 launch vehicle from the Air Force Western Test Range (AFWTR). Payloads include a variety of satellites, spacecraft, and rockets equipped with specific instruments for various scientific and technological missions. These include communications satellites like Starlink; space stations such as the ISS; scientific satellites like the Hubble; Earth observation satellites from companies like Planet Labs, Umbra, and HawkEye 360; GPS; miniature CubeSats for education and research; and military/defense satellites.

Loading next visibility...
IRIDIUM 113 details
Identifier
42803, 2017-039A
Orbit
LEO
Last TLE update11 hours ago
Origin
Flag of USIridium (US)
ManufacturerOATK SSG Gilbert
MissionOperational Commercial Communications
Bus & MotorELITEBUS, Unknown motor
Mass860 kg wet, 700 kg dry
Launch date (UTC)
2017-06-25 (8 years ago)
Launch vehicle
FALCON 9
Launch site
Air Force Western Test Range (AFWTR)
Object type
Payload
Rocket body
Debris
Shape & HBRTrap Box + 2 Pan, 9.4 m
Radar Cross Section14.423 m², Large (>1 m²)

Expand to show TLE details & history

TLE from 11 hours ago
0 IRIDIUM 113
1 42803U 17039A   24361.25531417  .00000069  00000-0  17595-4 0  9997
2 42803  86.3993 186.9591 0002199  77.2040 282.9401 14.34218092394081
Epoch: 2024-12-26T06:07Z
Definitive object data (Epoch: 2024-12-26T06:07:39.144Z)
Latitude-0.00005°
Longitude-0.19134°
Altitude780.365 km
Speed7.464 km/s
True Right ascension12h 27m 50s
True Declination0° 00' 00"
Sunlit
Object was in daylight at TLE epoch
Visualization TLE readout
Latitude-15.69923°
Longitude-179.37393°
Altitude784.845 km
Speed7.46 km/s
Apparent Right ascension02h 07m 15s
Apparent Declination-30° 11' 03"
Sunlit
Object is in daylight
Visualization observer readout
Local Sidereal Time16:27:14
Azimuth82.106° E
Elevation-59.966°
Doppler factor1
Orbital elements
Apogee altitude776.203 km
Perigee altitude773.058 km
Semi-major axis7,152.767 km
Eccentricity0.0002199
Inclination86.3993°
RAAN186.9591°
Arg. of periapsis77.204°
True anomaly282.91554°
Mean anomaly282.9401°
Eccentric anomaly282.92782°
Mean motion3.58783 °/min
BSTAR0.000017595
Orbital period100.34 mins
Loading maneuver chart data...
Loading historical data...
Loading historical data...
Loading historical data...
Loading historical data...
Loading historical data...
Loading historical data...
Loading historical data...

IRIDIUM 113 Visibility forecast

Observer location: undefined°, undefined

Span
Click to sort rows by Start time (UTC) header in descending order
Start Az.
Max El. time (UTC)
Max El. Az.
Max El.
End time (UTC)
End Az.
5 mins2024-12-26 23:27:58.287Z41.399° NE2024-12-26 23:30:58.287Z78.572° E15.215°2024-12-26 23:32:58.287Z103.62° ESE
8 mins2024-12-27 01:07:58.287Z345.086° N2024-12-27 01:11:58.287Z263.289° W39.76°2024-12-27 01:15:58.287Z197.056° SSW
7 mins2024-12-27 12:23:58.287Z138.275° SSE2024-12-27 12:26:58.287Z91.343° ESE28.365°2024-12-27 12:30:58.287Z27.391° NE
7 mins2024-12-27 14:04:58.287Z234.728° WSW2024-12-27 14:07:58.287Z280.729° WNW23.988°2024-12-27 14:11:58.287Z335.375° NNW
|